Weather Roundup
Issued by NWS

Home | Current Version | Previous Version | Text Only | Print | Product List | Glossary On
Versions: 1 2 3 4 5 6 7 8 9 10 11 12 13 14 15 16 17 18 19 20 21 22 23 24 25 26 27 28 29 30 31 32 33 34 35 36 37 38 39 40 41 42 43 44 45 46 47 48 49 50
000
NZUS93 KARX 180959
HRRWXR

CURRENT HOURLY OBSERVATIONS ACROSS
MUCH OF THE UPPER MISSISSIPPI VALLEY
NATIONAL WEATHER SERVICE LA CROSSE WI
400 AM CST THU JAN 18 2018


...SOUTHEAST MINNESOTA...


CITY           SKY/WX    TMP DP  RH WIND       PRES   REMARKS
ROCHESTER      FAIR      17  13  84 SW10      30.00F WCI   5
ROCHESTER/MAYO FAIR      22  15  76 S6        30.01F WCI  14
WINONA         FAIR      23  14  68 CALM      30.02F
AUSTIN         FAIR      16  10  79 SW8       30.03F WCI   5
ALBERT LEA     FAIR      19  12  73 SW7       30.03F WCI  10
DODGE CENTER   FAIR      18  12  79 SW13      29.99F WCI   4
PRESTON        FAIR      18  12  78 SW9       30.02F WCI   6
OWATONNA       FAIR      19  16  86 SW13      30.00F WCI   7
FARIBAULT      FAIR      18  14  86 S8        30.00F WCI   7
$$

...ELSEWHERE IN MINNESOTA...


CITY           SKY/WX    TMP DP  RH WIND       PRES   REMARKS
MINNEAPOLIS    MOCLDY    23  18  81 SW8       29.96F WCI  14
INTNL FALLS    LGT SNOW  30  27  88 SW9       29.64F FOG     WCI  22
DULUTH         FAIR      26  20  77 SW10      29.73F WCI  16
RED WING       FAIR      16  10  79 CALM      29.99F
REDWOOD FALLS  CLOUDY    22  17  81 SW9       29.96F WCI  12
MANKATO        FAIR      19  15  84 S9        30.01F WCI   8
WORTHINGTON    CLOUDY    19  15  84 SW14      30.02F WCI   6
FAIRMONT       CLOUDY    24  18  77 W17       30.01F WCI  11
$$

...SOUTHWEST WISCONSIN...


CITY           SKY/WX    TMP DP  RH WIND       PRES   REMARKS
LA CROSSE      FAIR      19  11  70 S10       30.05F WCI   7
PRAIRIE DU CHI FAIR      18   9  67 CALM      30.13F
BOSCOBEL       FAIR      19  10  68 SW8       30.12F WCI   9
LONE ROCK      NOT AVBL
PLATTEVILLE    FAIR      19  12  74 SW12      30.12F WCI   6
FORT MC COY    FAIR      20  14  77 CALM      30.05S
CAMP DOUGLAS   FAIR      20  13  74 SW9       30.00F WCI   9
MAUSTON-NEW LI FAIR      22  13  70 W10       30.01F WCI  11
VIROQUA        FAIR      18  13  82 SW13      30.04S WCI   4
WIS DELLS      FAIR      19  11  70 SW13      30.03S WCI   7
$$

...ELSEWHERE IN WISCONSIN...


CITY           SKY/WX    TMP DP  RH WIND       PRES   REMARKS
MILWAUKEE      FAIR      21  11  65 W13G20    30.06F WCI   9
MADISON        FAIR      19  10  68 SW6       30.07F WCI  11
GREEN BAY      FAIR      17   9  70 SW9       29.96F WCI   6
EAU CLAIRE     NOT AVBL
BLACK RVR FLS  FAIR      18  12  79 S5        30.01F WCI  11
MEDFORD        FAIR      18  13  81 SW9       29.91F WCI   7
WAUSAU         FAIR      19  14  81 SW7       29.91F WCI  10
WIS RAPIDS     FAIR      18  10  71 SW7       29.98F WCI   9
MARSHFIELD     FAIR      18  13  80 W10       29.93F WCI   6
RICE LAKE      FAIR      21  16  81 CALM      29.93F
$$

...NORTHEAST IOWA...


CITY           SKY/WX    TMP DP  RH WIND       PRES   REMARKS
WATERLOO       FAIR      17  10  74 SW9       30.12F WCI   6
DUBUQUE        FAIR      16   8  71 SW10      30.12F WCI   4
DECORAH        FAIR      18  12  79 SW7       30.07F WCI   8
MASON CITY     CLOUDY    18  11  74 SW14      30.07F WCI   4
CHARLES CITY   FAIR      18  12  79 SW9       30.09S WCI   6
OELWEIN        FAIR      14  12  92 S9        30.11F WCI   2
$$

...ELSEWHERE IN IOWA...


CITY           SKY/WX    TMP DP  RH WIND       PRES   REMARKS
DES MOINES     CLOUDY    21  11  65 SW10      30.18F WCI  10
IOWA CITY      FAIR      19  10  68 SW8       30.22F WCI   9
FORT DODGE     CLOUDY    17  12  80 SW14      30.09F WCI   3
MARSHALLTOWN   CLOUDY    19  12  74 SW14      30.14F WCI   6
CEDAR RAPIDS   FAIR      18  10  71 SW10      30.16F WCI   6
$$

...NORTHERN ILLINOIS...


CITY           SKY/WX    TMP DP  RH WIND       PRES   REMARKS
CHICAGO-OHARE  FAIR      17   9  70 W12       30.15S WCI   4
CHICAGO-MIDWAY FAIR      18  10  71 SW15G24   30.18F WCI   4
MOLINE         FAIR      18  11  74 SW10      30.21F WCI   6
ROCKFORD       FAIR      17   9  70 SW9       30.17F WCI   6
PEORIA         FAIR      18   9  68 SW12      30.27F WCI   5
$$

NOTE: "FAIR" INDICATES FEW OR NO CLOUDS BELOW 12,000 FEET WITH NO
SIGNIFICANT WEATHER AND/OR OBSTRUCTIONS TO VISIBILITY. WIND
SPEEDS ARE IN MILES-PER-HOUR.




USA.gov is the U.S. government's official web portal to all federal, state and local government web resources and services.